Location: Balaclava NSW 2575, Australia
(34.4510°S, 150.4953°E)
Time: 12:48:58
(UTC+10:00)

Hubble Space Telescope - Visible Passes

Search period start: 18 August 2019 00:00
Search period end: 28 August 2019 00:00
Orbit: 536 x 540 km, 28.5° (Epoch: 17 August)

Date Brightness Start Highest point End Pass type
(mag) Time Alt. Az. Time Alt. Az. Time Alt. Az.
18 Aug 2.8 05:41:55 10° NW 05:45:12 22° NNE 05:48:29 10° ENE visible
19 Aug 2.6 05:31:07 10° NW 05:34:35 25° NNE 05:38:04 10° ENE visible
20 Aug 2.3 05:21:07 14° NW 05:23:58 28° N 05:27:36 10° ENE visible
21 Aug 2.1 05:11:17 20° NW 05:13:22 31° N 05:17:05 10° ENE visible
22 Aug 2.0 05:01:24 26° NNW 05:02:46 33° N 05:06:34 10° ENE visible
23 Aug 1.8 04:51:28 33° NNW 04:52:11 35° N 04:56:00 10° ENE visible
24 Aug 1.7 04:41:31 36° N 04:41:36 36° N 04:45:26 10° ENE visible
25 Aug 1.9 04:31:33 34° NNE 04:31:33 34° NNE 04:34:51 10° ENE visible
26 Aug 2.3 04:21:36 29° NNE 04:21:36 29° NNE 04:24:14 10° ENE visible
26 Aug 2.6 05:57:59 10° WNW 06:01:11 21° NNW 06:04:23 10° NE visible
27 Aug 2.8 04:11:41 22° NE 04:11:41 22° NE 04:13:36 10° ENE visible
27 Aug 2.7 05:47:39 10° WNW 05:50:33 18° NNW 05:53:27 10° NNE visible
